Home   Weather   Kingston   Past weeks

Flag for Canada Past Weather in Kingston, Ontario, Canada — Yesterday and Last 2 Weeks

39 °F

Partly sunny.

Feels Like: 39 °F
Forecast: 30 / 40 °F
Wind: 2 mph from North

Location: Kingston

Current Time: Oct 26, 2016 at 3:20:59 PM

Latest Report: Oct 26, 2016 at 3:00 PM

Visibility: 15 mi

Pressure: 30.50 "Hg

Humidity: 42%

Dew Point: 18 °F

Location of KingstonLocation

Past Weather in Kingston — Graph


Kingston Temperature Yesterday

Maximum temperature yesterday: 43 °F (at 1:00 PM)
Minimum temperature yesterday: 32 °F (at 7:00 AM)
Average temperature yesterday: 38 °F

High & Low Weather Summary for the Past Weeks

High72 °F (Oct 18, 4:00 PM)100% (Oct 16, 8:00 PM)30.52 "Hg (Oct 16, 8:00 PM)
Low30 °F (Oct 14, 6:00 AM)43% (Oct 23, 1:00 PM)29.58 "Hg (Oct 18, 3:00 PM)
Average52 °F75%30.02 "Hg
* Reported Oct 11 2:00 PM — Oct 26 2:00 PM, Kingston, Weather by CustomWeather, © 2016

Note: Actual official high and low records may vary slightly from our data, if they occured in-between our weather recording intervals... More about our weather records


Kingston Weather History for the Previous 24 Hours

Scroll right to see more
Time TempWeatherWind HumidityBarometerVisibility
2:00 PM
Wed, Oct 26
37 °FPartly sunny.8 mph52%30.50 "Hg15 mi
1:00 PM39 °FPartly sunny.10 mph48%30.50 "Hg15 mi
12:00 PM37 °FPartly sunny.9 mph60%30.51 "Hg15 mi
11:00 AM37 °FBroken clouds.13 mph56%30.51 "Hg15 mi
10:00 AM36 °FPassing clouds.14 mph65%30.52 "Hg15 mi
9:00 AM32 °FPassing clouds.10 mph75%30.51 "Hg15 mi
8:00 AM30 °FScattered clouds.9 mph80%30.50 "Hg15 mi
7:00 AM32 °FPassing clouds.12 mph80%30.48 "Hg15 mi
6:00 AM30 °FPassing clouds.9 mph86%30.47 "Hg15 mi
11:00 PM
Tue, Oct 25
36 °FPassing clouds.8 mph65%30.40 "Hg15 mi
10:00 PM37 °FPassing clouds.9 mph56%30.39 "Hg15 mi
9:00 PM39 °FPassing clouds.9 mph56%30.38 "Hg15 mi
8:00 PM39 °FPassing clouds.7 mph52%30.37 "Hg15 mi
7:00 PM37 °FPassing clouds.7 mph56%30.35 "Hg15 mi
6:00 PM41 °FPartly sunny.9 mph49%30.33 "Hg15 mi
5:00 PM41 °FPartly sunny.9 mph49%30.31 "Hg15 mi
4:00 PM43 °FPartly sunny.14 mph46%30.30 "Hg15 mi
3:00 PM43 °FPartly sunny.16 mph46%30.29 "Hg15 mi
Weather by CustomWeather, © 2016

See weather overviewHow to use our weather pages